sat.trackr.live / text

‹ back to catalog

STARLINK-6091

NORAD 56119 · 2023-046AC

PAYLOAD ACTIVE UNKNOWN

§ Identity

Operator
Country
US
Launch date
2023-03-29
Launch site
AFETR
Launch vehicle
Mass (kg)
RCS (m²)

Purposes: comms

External: N2YO · Heavens-Above · Gunter

§ Orbital elements

Epoch: 2026-09-20T21:57:10.266624Z

Period
94.27 min
Inclination
43.0021°
Eccentricity
0.0001056
Mean motion
15.27575697 rev/d
Perigee alt
482.3 km
Apogee alt
483.8 km
Semi-major
6,861.2 km
B*
6.1393e-6
RAAN
124.7739°
Arg perigee
241.4359°
Mean anomaly
118.6386°
Rev number
19,205

§ Raw data

STARLINK-60911 56119U 23046AC  26263.91470216 -.00000093  00000+0  61393-5 0  99952 56119  43.0021 124.7739 0001056 241.4359 118.6386 15.27575697192051

JSON: /api/v1/satellites/56119 · /tle

For live sub-satellite position, see the globe view (requires WebGL).

§ Visibility from observer

Set your observer location to see the next 7 days of passes ≥ 10°. The values pass through the URL so the page stays shareable.

No JS? Fill the form by hand. The geolocation button needs JavaScript.